Simultaneous Nadir Overpasses (SNOs) Predictions

Prediction of SNOs between METOP-C and LANDSAT-8 Satellite Orbit:

Table of predicted SNOs for the next 14.0 days since TLE Epoch: 10/28/2022
Index Date (METOP-C) Time (METOP-C) Lat,Lon (METOP-C) SZA (METOP-C ) Date (LANDSAT-8) Time (LANDSAT-8) Lat,Lon (LANDSAT-8) SZA (LANDSAT-8 ) Distance(km) Time Diff (sec)
1 10/29/2022 19:03:37 -81.09, 113.39 82.95 10/29/2022 19:04:16 -81.09, 113.38 82.94 0.62 39
2 10/29/2022 19:54:14 81.13, -78.35 97.19 10/29/2022 19:53:41 81.12, -78.52 97.15 2.98 33
3 11/01/2022 14:38:01 -81.10, 179.89 82.02 11/01/2022 14:38:31 -81.10,-179.93 81.99 3.26 30
4 11/01/2022 15:28:38 81.13, -11.88 98.11 11/01/2022 15:27:56 81.13, -11.85 98.10 0.84 42
5 11/04/2022 10:12:24 -81.11,-113.30 81.09 11/04/2022 10:12:46 -81.11,-113.37 81.09 1.29 22
6 11/04/2022 11:03:03 81.12, 54.17 98.94 11/04/2022 11:02:12 81.12, 54.32 98.93 2.65 51
7 11/07/2022 05:46:47 -81.11, -46.92 80.26 11/07/2022 05:47:00 -81.11, -46.95 80.25 0.55 13
8 11/07/2022 06:37:26 81.11, 120.55 99.78 11/07/2022 06:36:26 81.11, 120.73 99.77 3.16 60
9 11/10/2022 01:21:11 -81.11, 19.41 79.46 11/10/2022 01:21:15 -81.10, 19.35 79.47 1.15 4



Historial Predications of SNOs between METOP-C and LANDSAT-8
